Location: Unspecified
(0.0000°N, 0.0000°E)
Time: 08:53:16
(UTC+00:00)

Vanguard 1 Rocket - Visible Passes

Search period start: 23 May 2017 00:00
Search period end: 02 June 2017 00:00
Orbit: 651 x 4226 km, 34.3° (Epoch: 22 May)

Date Brightness Start Highest point End Pass type
(mag) Time Alt. Az. Time Alt. Az. Time Alt. Az.
23 May 9.7 04:03:15 10° NNW 04:07:32 17° NNE 04:10:52 10° ENE visible
23 May 11.0 18:46:45 10° WSW 19:10:47 64° NW 19:34:25 10° NE visible
23 May 11.4 21:26:16 10° W 21:45:57 27° NNW 22:00:57 10° NNE visible
24 May 10.4 02:52:28 10° N 02:55:08 12° NNE 02:57:25 10° NNE visible
24 May 7.6 05:16:50 10° NW 05:22:32 58° NE 05:26:51 10° ESE visible
24 May 10.9 17:33:02 10° SW 17:55:00 85° NW 18:21:00 10° NE visible
24 May 11.4 20:06:50 10° W 20:29:51 39° NW 20:49:26 10° NNE visible
24 May 11.4 22:55:44 10° NW 23:06:31 15° NNW 23:14:54 10° NNE visible
25 May 9.1 04:05:14 10° NNW 04:11:20 28° NNE 04:15:34 10° E visible
25 May 11.3 18:50:27 10° WSW 19:13:43 54° NW 19:37:05 10° NE visible
25 May 11.5 21:32:12 10° WNW 21:50:05 23° NNW 22:03:57 10° NNE visible
26 May 11.2 00:23:43 10° NNW 00:27:12 11° N 00:30:15 10° N visible
26 May 10.0 02:53:24 10° NNW 02:59:16 18° NNE 03:03:28 10° ENE visible
26 May 6.9 05:19:56 10° WNW 05:25:54 78° SW 05:30:18 10° SE visible
26 May 11.0 17:36:18 10° WSW 17:57:46 73° NW 18:23:45 10° NE visible
26 May 11.6 20:11:43 10° W 20:33:27 33° NNW 20:52:12 10° NNE visible
26 May 11.4 23:01:46 10° NW 23:11:24 14° NNW 23:18:59 10° NNE visible
27 May 10.7 01:40:41 10° NNW 01:46:13 14° N 01:50:28 10° NE visible
27 May 8.3 04:07:43 10° NW 04:14:59 45° NNE 04:19:38 10° ESE visible
27 May 11.5 18:54:30 10° W 19:16:55 46° NNW 19:39:43 10° NE visible
27 May 11.5 21:38:27 10° WNW 21:54:37 20° NNW 22:07:18 10° NNE visible
28 May 11.0 00:25:40 10° NNW 00:32:00 13° N 00:37:00 10° NNE visible
28 May 9.5 02:55:18 10° NNW 03:03:14 27° NNE 03:08:17 10° E visible
28 May 7.3 05:23:26 10° WNW 05:29:10 43° SW 05:33:25 10° SSE visible
28 May 11.2 17:39:49 10° WSW 18:00:42 62° NW 18:26:22 10° NE visible
28 May 11.6 20:17:04 10° WNW 20:37:27 28° NNW 20:55:09 10° NNE visible
28 May 11.3 23:06:43 10° NW 23:16:24 15° N 23:23:55 10° NNE visible
29 May 10.3 01:42:13 10° NNW 01:50:31 20° NNE 01:56:06 10° ENE visible
29 May 7.4 04:10:31 10° NW 04:18:28 76° NE 04:23:19 10° ESE visible
29 May 11.7 18:58:58 10° W 19:20:26 39° NNW 19:42:23 10° NNE visible
29 May 11.5 21:44:38 10° NW 21:59:30 18° NNW 22:11:11 10° NNE visible
30 May 10.9 00:27:41 10° NNW 00:36:39 17° N 00:43:03 10° NE visible
30 May 8.9 02:57:34 10° NW 03:07:03 40° NNE 03:12:31 10° E visible
30 May 8.0 05:27:24 10° W 05:32:20 25° SW 05:36:09 10° SSE visible
30 May 11.5 17:43:39 10° WSW 18:03:53 52° NNW 18:28:56 10° NE visible
30 May 11.6 20:22:51 10° WNW 20:41:53 24° NNW 20:58:22 10° NNE visible
30 May 11.2 23:10:32 10° NNW 23:21:22 16° N 23:29:27 10° NE visible
31 May 10.2 01:44:08 10° NNW 01:59:26 16° ENE 02:00:58 10° ENE visible
31 May 7.3 04:17:00 23° WNW 04:21:46 67° SW 04:26:39 10° SE visible
31 May 11.7 19:03:52 10° W 19:24:20 33° NNW 19:45:12 10° NNE visible
31 May 11.4 21:50:15 10° NW 22:04:35 18° N 22:15:44 10° NNE visible
01 Jun 10.6 00:29:44 10° NNW 00:41:06 22° NNE 00:41:40 21° NNE visible
01 Jun 8.4 03:12:03 51° ENE 03:12:03 51° ENE 03:16:21 10° ESE visible
01 Jun 8.6 05:32:05 10° WSW 05:35:30 15° SW 05:38:22 10° S visible
01 Jun 11.7 17:47:49 10° W 18:07:22 44° NNW 18:31:29 10° NE visible
01 Jun 11.6 20:28:50 10° WNW 20:46:43 22° NNW 21:02:03 10° NNE visible
01 Jun 11.0 23:13:34 10° NNW 23:26:12 19° N 23:33:12 13° NE visible
